User: anonymous   Login
Location: Middlebury
(44.0153°N, 73.1678°W)
Time: 07:55:12
(UTC-04:00)
Language:

UWE-3 - Orbit

View from above orbital plane
View from above orbital plane
View from above satellite
View from above satellite

Ground track
Ground track

The orbit data is extracted from the following two-line orbital elements,

1 39446U 13066AG  24169.85707562  .00003557  00000-0  39925-3 0  9995
2 39446  97.7807 119.5823 0059308 215.9601 143.7617 14.86131581569393
Epoch (UTC): 17 June 2024 20:34:11
Eccentricity: 0.0059308
inclination: 97.7807°
perigee height: 568 km
apogee height: 651 km
right ascension of ascending node: 119.5823°
argument of perigee: 215.9601°
revolutions per day: 14.86131581
mean anomaly at epoch: 143.7617°
orbit number at epoch: 56939

The dashed part of the orbit path shows where the satellite is in the earth's shadow,  

DLR